EXS84JZ EGBB-ENBR

Flight info

Callsign EXS84JZ
Flight time 1h 28m
Altitude 39000
Route LUVUM DCT TNT N57 POL DCT KEFTE DCT KLONN DCT MODNI
Aircraft B738/M-SDE2E3FGHIRWXY/LB1

Departure

Time 2026-04-27 18:16
Airport Birmingham Airport (EGBB)

Arrival

Time 2026-04-27 19:45
Airport Bergen Airport, Flesland (ENBR)
Time Latitude Longitude Altitude Speed Heading
2026-04-27 17:50 52.45164 -1.73381 320 ft 0 kts 141°
2026-04-27 18:02 52.45177 -1.73397 321 ft 4 kts 141°
2026-04-27 18:03 52.45197 -1.73426 319 ft 4 kts 134°
2026-04-27 18:03 52.45216 -1.73454 321 ft 4 kts 163°
2026-04-27 18:03 52.45221 -1.73457 321 ft 3 kts 185°
2026-04-27 18:03 52.45202 -1.73475 322 ft 4 kts 232°
2026-04-27 18:04 52.45197 -1.73488 322 ft 0 kts 236°
2026-04-27 18:08 52.45189 -1.73506 321 ft 6 kts 236°
2026-04-27 18:09 52.45155 -1.73588 322 ft 10 kts 236°
2026-04-27 18:09 52.45114 -1.73687 322 ft 10 kts 236°
2026-04-27 18:09 52.45071 -1.73764 322 ft 9 kts 219°
2026-04-27 18:09 52.45049 -1.73802 322 ft 0 kts 233°
2026-04-27 18:13 52.45040 -1.73823 322 ft 7 kts 234°
2026-04-27 18:13 52.44991 -1.73837 322 ft 8 kts 150°
2026-04-27 18:13 52.44944 -1.73786 322 ft 8 kts 147°
2026-04-27 18:14 52.44908 -1.73746 322 ft 5 kts 146°
2026-04-27 18:14 52.44899 -1.73736 322 ft 0 kts 148°
2026-04-27 18:14 52.44886 -1.73721 322 ft 7 kts 146°
2026-04-27 18:14 52.44815 -1.73690 322 ft 13 kts 194°
2026-04-27 18:15 52.44735 -1.73744 322 ft 12 kts 222°
2026-04-27 18:15 52.44686 -1.73856 325 ft 12 kts 236°
2026-04-27 18:15 52.44657 -1.73980 326 ft 12 kts 295°
2026-04-27 18:15 52.44720 -1.74062 325 ft 12 kts 326°
2026-04-27 18:16 52.44879 -1.74239 326 ft 57 kts 326°
2026-04-27 18:16 52.45399 -1.74817 322 ft 122 kts 327°
2026-04-27 18:16 52.46216 -1.75721 607 ft 148 kts 326°
2026-04-27 18:16 52.47072 -1.76646 1434 ft 147 kts 329°
2026-04-27 18:17 52.47941 -1.77616 2050 ft 161 kts 329°
2026-04-27 18:17 52.48963 -1.78749 2332 ft 189 kts 337°
2026-04-27 18:17 52.50266 -1.79017 2811 ft 195 kts
2026-04-27 18:17 52.51648 -1.78747 3393 ft 204 kts
2026-04-27 18:18 52.53056 -1.78465 4199 ft 205 kts
2026-04-27 18:18 52.54483 -1.78175 4915 ft 209 kts
2026-04-27 18:18 52.55936 -1.77879 5599 ft 214 kts
2026-04-27 18:18 52.57411 -1.77577 6227 ft 221 kts
2026-04-27 18:19 52.58959 -1.77260 6886 ft 226 kts
2026-04-27 18:19 52.60583 -1.76930 7206 ft 249 kts
2026-04-27 18:19 52.62357 -1.76568 7652 ft 263 kts
2026-04-27 18:19 52.64171 -1.76193 8502 ft 262 kts
2026-04-27 18:20 52.65976 -1.75823 9362 ft 262 kts
2026-04-27 18:20 52.67800 -1.75441 10133 ft 266 kts
2026-04-27 18:20 52.69663 -1.75030 10631 ft 278 kts
2026-04-27 18:20 52.71635 -1.74592 10792 ft 301 kts
2026-04-27 18:21 52.73781 -1.74113 11054 ft 320 kts
2026-04-27 18:21 52.76013 -1.73613 11626 ft 327 kts
2026-04-27 18:21 52.78278 -1.73103 12359 ft 329 kts
2026-04-27 18:21 52.80545 -1.72594 13165 ft 330 kts
2026-04-27 18:22 52.82827 -1.72081 13956 ft 332 kts
2026-04-27 18:22 52.85125 -1.71566 14674 ft 335 kts
2026-04-27 18:22 52.87438 -1.71047 15413 ft 336 kts
2026-04-27 18:22 52.89765 -1.70525 16173 ft 338 kts
2026-04-27 18:23 52.92071 -1.70007 16886 ft 341 kts
2026-04-27 18:23 52.94428 -1.69477 17611 ft 343 kts
2026-04-27 18:23 52.96803 -1.68942 18327 ft 346 kts
2026-04-27 18:23 52.99199 -1.68402 18989 ft 348 kts
2026-04-27 18:24 53.01585 -1.67863 19796 ft 344 kts
2026-04-27 18:24 53.03945 -1.67329 20600 ft 341 kts
2026-04-27 18:24 53.06301 -1.67007 21281 ft 340 kts 358°
2026-04-27 18:24 53.08663 -1.67157 21946 ft 340 kts 356°
2026-04-27 18:25 53.11024 -1.67349 22609 ft 340 kts 356°
2026-04-27 18:25 53.13358 -1.67543 23274 ft 340 kts 356°
2026-04-27 18:25 53.15719 -1.67734 23939 ft 340 kts 356°
2026-04-27 18:25 53.18090 -1.67922 24406 ft 343 kts 356°
2026-04-27 18:26 53.20488 -1.68109 24774 ft 347 kts 356°
2026-04-27 18:26 53.22911 -1.68294 25170 ft 350 kts 356°
2026-04-27 18:26 53.25353 -1.68479 25623 ft 352 kts 356°
2026-04-27 18:26 53.27810 -1.68664 26056 ft 354 kts 356°
2026-04-27 18:27 53.30286 -1.68849 26431 ft 358 kts 356°
2026-04-27 18:27 53.32787 -1.69036 26807 ft 361 kts 356°
2026-04-27 18:27 53.35271 -1.69222 27200 ft 364 kts 356°
2026-04-27 18:27 53.37812 -1.69413 27576 ft 367 kts 356°
2026-04-27 18:28 53.40368 -1.69604 27945 ft 369 kts 356°
2026-04-27 18:28 53.42940 -1.69798 28300 ft 372 kts 356°
2026-04-27 18:28 53.45533 -1.69993 28642 ft 374 kts 356°
2026-04-27 18:28 53.48146 -1.70190 28981 ft 377 kts 356°
2026-04-27 18:29 53.50777 -1.70388 29328 ft 380 kts 356°
2026-04-27 18:29 53.53425 -1.70588 29661 ft 382 kts 356°
2026-04-27 18:29 53.56089 -1.70789 29978 ft 385 kts 356°
2026-04-27 18:29 53.58771 -1.70992 30290 ft 387 kts 356°
2026-04-27 18:30 53.61436 -1.71194 30555 ft 389 kts 356°
2026-04-27 18:30 53.64144 -1.71400 30866 ft 390 kts 356°
2026-04-27 18:30 53.66853 -1.71605 31246 ft 389 kts 356°
2026-04-27 18:30 53.69550 -1.71810 31581 ft 389 kts 356°
2026-04-27 18:31 53.72254 -1.72016 31862 ft 390 kts 356°
2026-04-27 18:31 53.74966 -1.72223 32251 ft 388 kts 357°
2026-04-27 18:31 53.77654 -1.72428 32658 ft 386 kts 357°
2026-04-27 18:31 53.80307 -1.72631 32913 ft 388 kts 357°
2026-04-27 18:32 53.83009 -1.72838 33170 ft 389 kts 357°
2026-04-27 18:32 53.85713 -1.73045 33505 ft 389 kts 357°
2026-04-27 18:32 53.88411 -1.73252 33844 ft 388 kts 357°
2026-04-27 18:32 53.91115 -1.73460 34114 ft 389 kts 356°
2026-04-27 18:33 53.93824 -1.73669 34370 ft 390 kts 356°
2026-04-27 18:33 53.96539 -1.73878 34602 ft 391 kts 356°
2026-04-27 18:33 53.99264 -1.73794 34776 ft 394 kts
2026-04-27 18:33 54.01971 -1.72962 34951 ft 398 kts 11°
2026-04-27 18:34 54.04599 -1.71671 35182 ft 400 kts 17°
2026-04-27 18:34 54.07148 -1.69729 35389 ft 404 kts 24°
2026-04-27 18:34 54.09635 -1.67473 35577 ft 406 kts 25°
2026-04-27 18:34 54.12115 -1.65158 35767 ft 407 kts 25°
2026-04-27 18:35 54.14597 -1.62821 35998 ft 408 kts 25°
2026-04-27 18:35 54.17087 -1.60480 36181 ft 409 kts 25°
2026-04-27 18:35 54.19585 -1.58140 36406 ft 411 kts 25°
2026-04-27 18:35 54.22108 -1.55784 36429 ft 416 kts 25°
2026-04-27 18:36 54.24656 -1.53410 36593 ft 417 kts 25°
2026-04-27 18:36 54.27194 -1.51045 36936 ft 414 kts 25°
2026-04-27 18:36 54.29690 -1.48719 37120 ft 415 kts 26°
2026-04-27 18:36 54.32235 -1.46347 37225 ft 418 kts 26°
2026-04-27 18:37 54.34794 -1.43960 37402 ft 418 kts 26°
2026-04-27 18:37 54.37347 -1.41573 37619 ft 418 kts 26°
2026-04-27 18:37 54.39907 -1.39178 37790 ft 419 kts 26°
2026-04-27 18:37 54.42472 -1.36774 37934 ft 421 kts 26°
2026-04-27 18:38 54.45042 -1.34363 38114 ft 421 kts 26°
2026-04-27 18:38 54.47611 -1.31947 38296 ft 421 kts 26°
2026-04-27 18:38 54.50184 -1.29525 38493 ft 421 kts 26°
2026-04-27 18:38 54.52712 -1.27141 38789 ft 419 kts 26°
2026-04-27 18:39 54.55268 -1.24728 38956 ft 420 kts 26°
2026-04-27 18:39 54.57833 -1.22304 39049 ft 421 kts 26°
2026-04-27 18:39 54.60402 -1.19872 39173 ft 421 kts 26°
2026-04-27 18:39 54.62972 -1.17436 39315 ft 421 kts 26°
2026-04-27 18:40 54.68129 -1.12537 39354 ft 424 kts 26°
2026-04-27 18:40 54.73289 -1.07619 39374 ft 422 kts 26°
2026-04-27 18:41 54.78390 -1.02742 39363 ft 421 kts 27°
2026-04-27 18:41 54.83508 -0.97837 39352 ft 420 kts 27°
2026-04-27 18:42 54.87748 -0.93761 39358 ft 419 kts 27°
2026-04-27 18:42 54.93699 -0.88025 39356 ft 418 kts 27°
2026-04-27 18:43 54.98750 -0.83141 39357 ft 418 kts 27°
2026-04-27 18:43 55.03837 -0.78208 39358 ft 418 kts 27°
2026-04-27 18:44 55.08926 -0.73259 39352 ft 419 kts 27°
2026-04-27 18:44 55.14017 -0.68293 39352 ft 420 kts 27°
2026-04-27 18:45 55.19082 -0.63337 39358 ft 420 kts 27°
2026-04-27 18:45 55.24184 -0.58331 39353 ft 421 kts 27°
2026-04-27 18:46 55.29288 -0.53308 39363 ft 421 kts 27°
2026-04-27 18:46 55.34398 -0.48264 39357 ft 421 kts 27°
2026-04-27 18:47 55.39502 -0.43210 39357 ft 421 kts 27°
2026-04-27 18:47 55.44571 -0.38177 39355 ft 421 kts 27°
2026-04-27 18:48 55.49666 -0.33101 39361 ft 420 kts 27°
2026-04-27 18:48 55.54750 -0.28023 39365 ft 420 kts 28°
2026-04-27 18:49 55.59823 -0.22939 39365 ft 419 kts 28°
2026-04-27 18:49 55.64883 -0.17854 39364 ft 418 kts 28°
2026-04-27 18:50 55.69896 -0.12800 39364 ft 417 kts 28°
2026-04-27 18:50 55.74927 -0.07714 39369 ft 416 kts 28°
2026-04-27 18:51 55.79943 -0.02628 39371 ft 415 kts 28°
2026-04-27 18:51 55.84952 0.02466 39384 ft 415 kts 28°
2026-04-27 18:52 55.89925 0.07539 39372 ft 415 kts 28°
2026-04-27 18:53 55.97435 0.15229 39373 ft 415 kts 28°
2026-04-27 18:53 56.02451 0.20384 39379 ft 416 kts 28°
2026-04-27 18:54 56.07468 0.25556 39379 ft 417 kts 28°
2026-04-27 18:54 56.12459 0.30718 39384 ft 417 kts 28°
2026-04-27 18:55 56.17493 0.35939 39384 ft 418 kts 28°
2026-04-27 18:55 56.22531 0.41180 39383 ft 419 kts 28°
2026-04-27 18:56 56.27574 0.46443 39383 ft 419 kts 28°
2026-04-27 18:56 56.32589 0.51693 39388 ft 420 kts 28°
2026-04-27 18:57 56.37633 0.56990 39384 ft 420 kts 28°
2026-04-27 18:57 56.42681 0.62306 39394 ft 420 kts 29°
2026-04-27 18:58 56.47722 0.67633 39387 ft 420 kts 29°
2026-04-27 18:58 56.52762 0.72974 39387 ft 420 kts 29°
2026-04-27 18:59 56.57765 0.78294 39384 ft 420 kts 29°
2026-04-27 18:59 56.62793 0.83656 39398 ft 419 kts 29°
2026-04-27 19:00 56.67817 0.89031 39399 ft 419 kts 29°
2026-04-27 19:00 56.72830 0.94411 39398 ft 418 kts 29°
2026-04-27 19:01 56.77801 0.99762 39399 ft 418 kts 29°
2026-04-27 19:01 56.82801 1.05161 39398 ft 417 kts 29°
2026-04-27 19:02 56.87793 1.10569 39404 ft 417 kts 29°
2026-04-27 19:02 56.92777 1.15984 39403 ft 416 kts 29°
2026-04-27 19:03 56.97721 1.21373 39409 ft 416 kts 30°
2026-04-27 19:03 57.02699 1.26818 39405 ft 417 kts 30°
2026-04-27 19:04 57.06834 1.31352 39411 ft 417 kts 30°
2026-04-27 19:04 57.12654 1.37755 39408 ft 417 kts 30°
2026-04-27 19:05 57.17596 1.43210 39413 ft 417 kts 30°
2026-04-27 19:05 57.22572 1.48721 39412 ft 417 kts 30°
2026-04-27 19:06 57.27547 1.54248 39422 ft 417 kts 30°
2026-04-27 19:06 57.32521 1.59791 39419 ft 418 kts 30°
2026-04-27 19:07 57.37462 1.65316 39411 ft 418 kts 30°
2026-04-27 19:07 57.42432 1.70890 39414 ft 418 kts 30°
2026-04-27 19:08 57.47399 1.76480 39419 ft 417 kts 30°
2026-04-27 19:08 57.52364 1.82084 39434 ft 418 kts 30°
2026-04-27 19:09 57.56495 1.86761 39427 ft 418 kts 30°
2026-04-27 19:09 57.62264 1.93315 39421 ft 418 kts 30°
2026-04-27 19:10 57.66392 1.98018 39419 ft 418 kts 30°
2026-04-27 19:10 57.72194 2.04651 39420 ft 418 kts 30°
2026-04-27 19:11 57.76316 2.09379 39424 ft 418 kts 30°
2026-04-27 19:11 57.82077 2.16008 39425 ft 418 kts 30°
2026-04-27 19:12 57.87034 2.21732 39421 ft 418 kts 30°
2026-04-27 19:12 57.91149 2.26499 39423 ft 418 kts 30°
2026-04-27 19:13 57.96097 2.32247 39428 ft 418 kts 30°
2026-04-27 19:13 58.01840 2.38943 39428 ft 418 kts 30°
2026-04-27 19:14 58.06777 2.44719 39425 ft 417 kts 30°
2026-04-27 19:14 58.10879 2.49533 39440 ft 418 kts 30°
2026-04-27 19:15 58.15813 2.55342 39423 ft 418 kts 31°
2026-04-27 19:15 58.21542 2.62110 39435 ft 418 kts 30°
2026-04-27 19:16 58.25674 2.67007 39420 ft 418 kts 30°
2026-04-27 19:16 58.30566 2.72824 39420 ft 418 kts 30°
2026-04-27 19:17 58.35491 2.78697 39433 ft 417 kts 30°
2026-04-27 19:17 58.40544 2.84070 39415 ft 415 kts 19°
2026-04-27 19:18 58.45995 2.87691 39428 ft 414 kts 18°
2026-04-27 19:18 58.51414 2.91232 39426 ft 414 kts 18°
2026-04-27 19:19 58.56873 2.94855 39182 ft 418 kts 18°
2026-04-27 19:19 58.59615 2.96692 38945 ft 416 kts 18°
2026-04-27 19:19 58.62331 2.98520 38661 ft 411 kts 18°
2026-04-27 19:19 58.65016 3.00332 38378 ft 407 kts 18°
2026-04-27 19:20 58.67685 3.02137 38114 ft 406 kts 18°
2026-04-27 19:20 58.70343 3.03938 37835 ft 404 kts 19°
2026-04-27 19:20 58.72993 3.05735 37286 ft 403 kts 19°
2026-04-27 19:20 58.75625 3.07524 36788 ft 401 kts 19°
2026-04-27 19:21 58.78252 3.09311 36248 ft 400 kts 19°
2026-04-27 19:21 58.80845 3.11078 35650 ft 401 kts 19°
2026-04-27 19:21 58.83470 3.12870 35071 ft 400 kts 19°
2026-04-27 19:21 58.86096 3.14665 34484 ft 401 kts 19°
2026-04-27 19:22 58.88714 3.16458 33997 ft 396 kts 19°
2026-04-27 19:22 58.91303 3.18234 33526 ft 393 kts 19°
2026-04-27 19:22 58.93863 3.19993 33093 ft 389 kts 19°
2026-04-27 19:22 58.96399 3.21738 32663 ft 385 kts 20°
2026-04-27 19:23 58.98904 3.23464 32244 ft 380 kts 19°
2026-04-27 19:23 59.01387 3.25178 31843 ft 376 kts 19°
2026-04-27 19:23 59.03810 3.26853 31428 ft 373 kts 19°
2026-04-27 19:23 59.06244 3.28539 31021 ft 370 kts 19°
2026-04-27 19:24 59.08658 3.30212 30623 ft 367 kts 19°
2026-04-27 19:24 59.11054 3.31876 30170 ft 364 kts 19°
2026-04-27 19:24 59.13429 3.33527 29755 ft 360 kts 19°
2026-04-27 19:24 59.15774 3.35161 29336 ft 356 kts 19°
2026-04-27 19:25 59.18092 3.36778 28931 ft 352 kts 19°
2026-04-27 19:25 59.20385 3.38379 28536 ft 348 kts 20°
2026-04-27 19:25 59.22654 3.39966 28160 ft 345 kts 20°
2026-04-27 19:25 59.24901 3.41590 27674 ft 345 kts 24°
2026-04-27 19:26 59.26999 3.43991 26845 ft 355 kts 35°
2026-04-27 19:26 59.28902 3.47170 26046 ft 365 kts 43°
2026-04-27 19:26 59.30621 3.50756 25535 ft 366 kts 45°
2026-04-27 19:26 59.32334 3.54429 24932 ft 367 kts 45°
2026-04-27 19:27 59.34076 3.58186 24095 ft 377 kts 45°
2026-04-27 19:27 59.35854 3.62021 23142 ft 384 kts 45°
2026-04-27 19:27 59.37666 3.65923 22208 ft 390 kts 45°
2026-04-27 19:27 59.39504 3.69877 21298 ft 394 kts 46°
2026-04-27 19:28 59.41363 3.73872 20416 ft 398 kts 46°
2026-04-27 19:28 59.43236 3.77901 19559 ft 401 kts 46°
2026-04-27 19:28 59.45124 3.81963 18719 ft 403 kts 46°
2026-04-27 19:28 59.46995 3.85993 17784 ft 405 kts 46°
2026-04-27 19:29 59.48890 3.90084 16871 ft 405 kts 46°
2026-04-27 19:29 59.50789 3.94187 15976 ft 405 kts 46°
2026-04-27 19:29 59.52686 3.98294 15174 ft 404 kts 47°
2026-04-27 19:29 59.54524 4.02286 14963 ft 379 kts 47°
2026-04-27 19:30 59.56236 4.06011 14799 ft 354 kts 47°
2026-04-27 19:30 59.57839 4.09502 14653 ft 333 kts 47°
2026-04-27 19:30 59.59356 4.12810 14432 ft 322 kts 47°
2026-04-27 19:30 59.60853 4.16075 14074 ft 319 kts 47°
2026-04-27 19:31 59.62334 4.19311 13694 ft 316 kts 47°
2026-04-27 19:31 59.63804 4.22526 13327 ft 314 kts 47°
2026-04-27 19:31 59.65239 4.25669 12973 ft 311 kts 47°
2026-04-27 19:31 59.66683 4.28838 12618 ft 309 kts 47°
2026-04-27 19:32 59.68116 4.31987 12263 ft 307 kts 47°
2026-04-27 19:32 59.69536 4.35112 11917 ft 304 kts 47°
2026-04-27 19:32 59.70947 4.38221 11566 ft 303 kts 47°
2026-04-27 19:32 59.72349 4.41315 11230 ft 301 kts 47°
2026-04-27 19:33 59.73741 4.44392 10885 ft 299 kts 47°
2026-04-27 19:33 59.74658 4.46420 10753 ft 295 kts 47°
2026-04-27 19:33 59.76450 4.50393 10573 ft 283 kts 47°
2026-04-27 19:33 59.77729 4.53231 10449 ft 276 kts 47°
2026-04-27 19:34 59.79000 4.56054 10155 ft 274 kts 47°
2026-04-27 19:34 59.80264 4.58866 9863 ft 272 kts 47°
2026-04-27 19:34 59.81520 4.61660 9574 ft 270 kts 47°
2026-04-27 19:34 59.82767 4.64439 9291 ft 269 kts 47°
2026-04-27 19:35 59.84007 4.67207 9009 ft 267 kts 47°
2026-04-27 19:35 59.85238 4.69959 8723 ft 266 kts 47°
2026-04-27 19:35 59.86465 4.72695 8443 ft 264 kts 47°
2026-04-27 19:35 59.87680 4.75418 8160 ft 263 kts 47°
2026-04-27 19:36 59.88891 4.78137 7885 ft 261 kts 47°
2026-04-27 19:36 59.90094 4.80839 7609 ft 260 kts 47°
2026-04-27 19:36 59.91293 4.83537 7336 ft 259 kts 47°
2026-04-27 19:36 59.92483 4.86215 6803 ft 268 kts 47°
2026-04-27 19:37 59.93729 4.89022 6386 ft 271 kts 47°
2026-04-27 19:37 59.94977 4.91837 6059 ft 270 kts 48°
2026-04-27 19:37 59.96219 4.94644 5758 ft 269 kts 48°
2026-04-27 19:37 59.97450 4.97430 5471 ft 266 kts 49°
2026-04-27 19:38 59.98670 5.00193 5180 ft 265 kts 49°
2026-04-27 19:38 59.99884 5.02946 4904 ft 262 kts 49°
2026-04-27 19:38 60.01069 5.05637 4779 ft 254 kts 49°
2026-04-27 19:38 60.02215 5.08243 4655 ft 246 kts 49°
2026-04-27 19:39 60.03326 5.10770 4544 ft 238 kts 49°
2026-04-27 19:39 60.04387 5.13187 4452 ft 230 kts 49°
2026-04-27 19:39 60.05427 5.15557 4351 ft 223 kts 49°
2026-04-27 19:39 60.06434 5.17853 4258 ft 215 kts 50°
2026-04-27 19:40 60.07411 5.20088 4062 ft 212 kts 50°
2026-04-27 19:40 60.08377 5.22297 3883 ft 208 kts 50°
2026-04-27 19:40 60.09315 5.24445 3665 ft 203 kts 49°
2026-04-27 19:40 60.10242 5.26533 3425 ft 198 kts 45°
2026-04-27 19:41 60.11439 5.27714 3196 ft 193 kts
2026-04-27 19:41 60.12749 5.27270 3061 ft 193 kts 350°
2026-04-27 19:41 60.14074 5.26890 2854 ft 195 kts 352°
2026-04-27 19:41 60.15405 5.26495 2644 ft 191 kts 351°
2026-04-27 19:42 60.16682 5.26074 2522 ft 181 kts 351°
2026-04-27 19:42 60.17901 5.25663 2304 ft 175 kts 351°
2026-04-27 19:42 60.19060 5.25272 2086 ft 163 kts 351°
2026-04-27 19:42 60.20133 5.24911 1871 ft 153 kts 351°
2026-04-27 19:43 60.21167 5.24563 1654 ft 148 kts 350°
2026-04-27 19:43 60.22169 5.24226 1444 ft 145 kts 350°
2026-04-27 19:43 60.23156 5.23882 1236 ft 143 kts 349°
2026-04-27 19:43 60.24119 5.23560 1047 ft 141 kts 351°
2026-04-27 19:44 60.25096 5.23243 850 ft 143 kts 349°
2026-04-27 19:44 60.26086 5.22893 660 ft 145 kts 350°
2026-04-27 19:44 60.27073 5.22581 433 ft 144 kts 349°
2026-04-27 19:44 60.28058 5.22248 226 ft 142 kts 349°
2026-04-27 19:45 60.28991 5.21948 150 ft 118 kts 350°
2026-04-27 19:45 60.29588 5.21735 155 ft 56 kts 351°
2026-04-27 19:45 60.29849 5.21648 159 ft 33 kts 351°
2026-04-27 19:45 60.30000 5.21603 161 ft 11 kts 358°
2026-04-27 19:46 60.30023 5.21624 161 ft 3 kts 38°
2026-04-27 19:46 60.30037 5.21714 160 ft 11 kts 82°
2026-04-27 19:46 60.30034 5.21880 159 ft 12 kts 129°
2026-04-27 19:46 60.29955 5.21931 158 ft 12 kts 171°
2026-04-27 19:47 60.29880 5.21953 158 ft 11 kts 175°
2026-04-27 19:47 60.29791 5.21985 157 ft 17 kts 171°
2026-04-27 19:47 60.29655 5.22031 156 ft 21 kts 170°
2026-04-27 19:47 60.29511 5.22081 155 ft 21 kts 171°
2026-04-27 19:48 60.29372 5.22126 154 ft 20 kts 171°
2026-04-27 19:48 60.29244 5.22172 153 ft 15 kts 169°
2026-04-27 19:48 60.29140 5.22207 151 ft 15 kts 171°
2026-04-27 19:48 60.29041 5.22240 151 ft 14 kts 171°
2026-04-27 19:49 60.28955 5.22272 150 ft 10 kts 156°
2026-04-27 19:49 60.28924 5.22386 150 ft 10 kts 137°
2026-04-27 19:49 60.28861 5.22421 149 ft 9 kts 170°
2026-04-27 19:49 60.28845 5.22427 149 ft 2 kts 169°
2026-04-27 19:50 60.28837 5.22434 149 ft 1 kts 148°
2026-04-27 19:50 60.28836 5.22450 149 ft 1 kts 94°
2026-04-27 19:50 60.28837 5.22470 149 ft 2 kts 80°
2026-04-27 19:50 60.28842 5.22492 149 ft 2 kts 61°
2026-04-27 19:51 60.28847 5.22510 149 ft 0 kts 60°